Weather History for Mora, MN

Change the Weather History Date:

Monday, January 30, 2012

  Actual Average Record
Temperature  
Mean Temperature 24 °F -  
Max Temperature 33 °F 22 °F 41 °F (1992)
Min Temperature 14 °F -5 °F -44 °F (1985)
Degree Days  
Heating Degree Days 42    
Moisture  
Dew Point 16 °F    
Average Humidity 73    
Maximum Humidity 86    
Minimum Humidity 60    
Precipitation  
Precipitation 0.00 in - - ()
Sea Level Pressure  
Sea Level Pressure 29.73 in    
Wind  
Wind Speed 4 mph (ESE)    
Max Wind Speed 10 mph    
Max Gust Speed -    
Visibility 10 miles    
Events Snow    
Averages and records for this station are not official NWS values.
T = Trace of Precipitation, MM = Missing Value Source: NWS Daily Summary

Daily Weather History Graph

Daily Weather History Graph

Search for Another Location

Airport:

Trip Planner

Search our weather history database for the weather conditions in past years. The results will help you decide how hot, cold, wet, or windy it might be!

Date:

Astronomy

Jan. 30, 2012 Rise Set
Actual Time 7:37 AM CST 5:15 PM CST
Civil Twilight 7:05 AM CST 5:47 PM CST
Nautical Twilight 6:30 AM CST 6:23 PM CST
Astronomical Twilight 5:55 AM CST 6:58 PM CST
Moon 10:33 AM CST (1/30) 12:26 AM CST (1/30)
Length of Visible Light 10h 41m
Length of Day
9h 37m
Waxing Crescent, 46% of the Moon is Illuminated
Jan 30
Waxing Crescent
Jan 30
First Quarter
Feb 7
Full
Feb 14
Last Quarter
Feb 21
New

Hourly Weather History & Observations

Time (CST) Temp. Windchill Dew Point Humidity Pressure Visibility Wind Dir Wind Speed Gust Speed Precip Events Conditions
12:15 AM 14.0 °F 6.5 °F 8.6 °F 79% 29.96 in 10.0 mi ESE 4.6 mph - N/A   Overcast
12:35 AM 14.0 °F 2.9 °F 8.6 °F 79% 29.93 in 10.0 mi ESE 8.1 mph - N/A   Overcast
12:55 AM 15.8 °F 6.1 °F 8.6 °F 73% 29.93 in 10.0 mi ESE 6.9 mph - N/A   Overcast
1:15 AM 17.6 °F 8.2 °F 10.4 °F 73% 29.91 in 10.0 mi ESE 6.9 mph - N/A   Overcast
1:35 AM 17.6 °F 9.3 °F 10.4 °F 73% 29.89 in 7.0 mi SE 5.8 mph - N/A Snow Light Snow
1:55 AM 17.6 °F 7.3 °F 10.4 °F 73% 29.88 in 2.5 mi ESE 8.1 mph - N/A Snow Light Snow
2:15 AM 17.6 °F 5.7 °F 12.2 °F 79% 29.86 in 3.0 mi ESE 10.4 mph - N/A Snow Light Snow
2:35 AM 17.6 °F 5.7 °F 12.2 °F 79% 29.84 in 5.0 mi ESE 10.4 mph - N/A Snow Light Snow
2:55 AM 17.6 °F 9.3 °F 12.2 °F 79% 29.83 in 10.0 mi ESE 5.8 mph - N/A Snow Light Snow
3:15 AM 17.6 °F 9.3 °F 12.2 °F 79% 29.82 in 10.0 mi SE 5.8 mph - N/A   Overcast
3:35 AM 17.6 °F 9.3 °F 12.2 °F 79% 29.81 in 10.0 mi SE 5.8 mph - N/A   Overcast
3:55 AM 17.6 °F 12.3 °F 12.2 °F 79% 29.80 in 10.0 mi SE 3.5 mph - N/A   Overcast
4:15 AM 17.6 °F 10.7 °F 12.2 °F 79% 29.79 in 10.0 mi ESE 4.6 mph - N/A   Overcast
4:35 AM 17.6 °F 8.2 °F 12.2 °F 79% 29.78 in 10.0 mi East 6.9 mph - N/A   Overcast
4:55 AM 19.4 °F 12.8 °F 14.0 °F 80% 29.75 in 10.0 mi ESE 4.6 mph - N/A   Overcast
5:15 AM 19.4 °F 12.8 °F 14.0 °F 80% 29.76 in 10.0 mi East 4.6 mph - N/A   Overcast
5:35 AM 17.6 °F 12.3 °F 12.2 °F 79% 29.75 in 10.0 mi ESE 3.5 mph - N/A   Scattered Clouds
6:15 AM 17.6 °F 12.3 °F 12.2 °F 79% 29.73 in 10.0 mi ESE 3.5 mph - N/A   Clear
6:35 AM 17.6 °F 10.7 °F 12.2 °F 79% 29.72 in 10.0 mi East 4.6 mph - N/A   Clear
6:55 AM 17.6 °F 10.7 °F 12.2 °F 79% 29.72 in 10.0 mi ESE 4.6 mph - N/A   Clear
7:55 AM 17.6 °F 12.3 °F 12.2 °F 79% 29.72 in 10.0 mi East 3.5 mph - N/A   Clear
8:15 AM 17.6 °F - 12.2 °F 79% 29.72 in 10.0 mi Calm Calm - N/A   Clear
8:35 AM 17.6 °F - 12.2 °F 79% 29.72 in 10.0 mi Calm Calm - N/A   Clear
8:55 AM 19.4 °F 12.8 °F 14.0 °F 80% 29.72 in 10.0 mi East 4.6 mph - N/A   Clear
9:15 AM 21.2 °F 14.9 °F 14.0 °F 74% 29.71 in 10.0 mi ESE 4.6 mph - N/A   Clear
9:35 AM 21.2 °F 16.4 °F 14.0 °F 74% 29.71 in 10.0 mi SE 3.5 mph - N/A   Clear
10:15 AM 24.8 °F 19.1 °F 17.6 °F 74% 29.70 in 10.0 mi ESE 4.6 mph - N/A   Clear
10:35 AM 26.6 °F 21.2 °F 19.4 °F 74% 29.70 in 10.0 mi SE 4.6 mph - N/A   Clear
11:15 AM 28.4 °F 21.2 °F 17.6 °F 64% 29.70 in 10.0 mi SE 6.9 mph - N/A   Clear
11:35 AM 30.2 °F 25.4 °F 19.4 °F 64% 29.69 in 10.0 mi SE 4.6 mph - N/A   Clear
11:55 AM 32.0 °F 26.4 °F 21.2 °F 64% 29.68 in 10.0 mi SE 5.8 mph - N/A   Clear
12:15 PM 32.0 °F 26.4 °F 21.2 °F 64% 29.69 in 10.0 mi SSE 5.8 mph - N/A   Clear
12:35 PM 32.0 °F 28.7 °F 19.4 °F 60% 29.68 in 10.0 mi South 3.5 mph - N/A   Clear
12:55 PM 32.0 °F - 19.4 °F 60% 29.67 in 10.0 mi Calm Calm - N/A   Clear
1:15 PM 32.0 °F 28.7 °F 19.4 °F 60% 29.67 in 10.0 mi South 3.5 mph - N/A   Clear
1:35 PM 32.0 °F 28.7 °F 21.2 °F 64% 29.66 in 10.0 mi South 3.5 mph - N/A   Clear
1:55 PM 32.0 °F - 19.4 °F 60% 29.66 in 10.0 mi Calm Calm - N/A   Clear
2:15 PM 32.0 °F - 21.2 °F 64% 29.66 in 10.0 mi Calm Calm - N/A   Clear
2:35 PM 33.8 °F 30.8 °F 21.2 °F 60% 29.66 in 10.0 mi East 3.5 mph - N/A   Clear
2:55 PM 33.8 °F 30.8 °F 21.2 °F 60% 29.66 in 10.0 mi SE 3.5 mph - N/A   Clear
3:16 PM 32.0 °F - 21.2 °F 64% 29.67 in 10.0 mi Calm Calm - N/A   Clear
3:35 PM 32.0 °F 28.7 °F 21.2 °F 64% 29.67 in 10.0 mi East 3.5 mph - N/A   Clear
3:55 PM 32.0 °F 28.7 °F 21.2 °F 64% 29.67 in 10.0 mi ESE 3.5 mph - N/A   Clear
4:15 PM 32.0 °F - 21.2 °F 64% 29.67 in 10.0 mi Calm Calm - N/A   Clear
4:35 PM 32.0 °F - 21.2 °F 64% 29.67 in 10.0 mi Calm Calm - N/A   Clear
4:55 PM 32.0 °F - 21.2 °F 64% 29.67 in 10.0 mi Calm Calm - N/A   Clear
5:15 PM 30.2 °F - 21.2 °F 69% 29.67 in 10.0 mi Calm Calm - N/A   Clear
5:35 PM 30.2 °F - 21.2 °F 69% 29.68 in 10.0 mi Calm Calm - N/A   Clear
5:55 PM 26.6 °F - 19.4 °F 74% 29.68 in 10.0 mi Calm Calm - N/A   Clear
6:15 PM 26.6 °F - 21.2 °F 80% 29.68 in 10.0 mi Calm Calm - N/A   Clear
6:35 PM 26.6 °F - 21.2 °F 80% 29.68 in 10.0 mi Calm Calm - N/A   Clear
6:55 PM 24.8 °F - 19.4 °F 80% 29.68 in 10.0 mi Calm Calm - N/A   Clear
7:15 PM 23.0 °F - 17.6 °F 80% 29.68 in 10.0 mi Calm Calm - N/A   Clear
7:35 PM 26.6 °F - 21.2 °F 80% 29.68 in 10.0 mi Calm Calm - N/A   Clear
7:55 PM 24.8 °F - 19.4 °F 80% 29.68 in 10.0 mi Calm Calm - N/A   Clear
8:15 PM 21.2 °F - 17.6 °F 86% 29.68 in 10.0 mi Calm Calm - N/A   Clear
8:35 PM 23.0 °F - 19.4 °F 86% 29.68 in 10.0 mi Calm Calm - N/A   Mostly Cloudy
8:55 PM 21.2 °F - 17.6 °F 86% 29.68 in 10.0 mi Calm Calm - N/A   Overcast
9:15 PM 26.6 °F - 21.2 °F 80% 29.68 in 10.0 mi Calm Calm - N/A   Overcast
9:35 PM 28.4 °F 24.6 °F 23.0 °F 80% 29.67 in 10.0 mi East 3.5 mph - N/A   Overcast
9:55 PM 30.2 °F - 23.0 °F 75% 29.66 in 10.0 mi Calm Calm - N/A   Overcast
10:16 PM 32.0 °F - 24.8 °F 75% 29.66 in 10.0 mi Calm Calm - N/A   Overcast
10:35 PM 30.2 °F - 23.0 °F 75% 29.66 in 10.0 mi Calm Calm - N/A   Overcast
10:55 PM 30.2 °F - 23.0 °F 75% 29.65 in 10.0 mi Calm Calm - N/A   Overcast
11:15 PM 30.2 °F 26.7 °F 23.0 °F 75% 29.64 in 10.0 mi ESE 3.5 mph - N/A   Overcast
11:35 PM 30.2 °F 26.7 °F 23.0 °F 75% 29.63 in 10.0 mi East 3.5 mph - N/A   Overcast
11:55 PM 30.2 °F 25.4 °F 23.0 °F 75% 29.62 in 10.0 mi ESE 4.6 mph - N/A   Mostly Cloudy